Вернуться в каталог

SBIRS GEO 2

USA 241

АктивенВоенныеGEO
NORAD 39120·PAYLOAD·🇺🇸 United States

Запущен Mar 19, 2013 с Cape Canaveral Space Force Station

Loading…

TLE

СвежийSource: Space-Track

Эпоха: Sep 14, 2026, 21:53 UTC

1 39120U 13011A   26257.91238071 -.00000151  00000-0  00000-0 0  9992
2 39120   4.6806  52.4474 0002439 139.6350  33.4887  1.00270877 49437

Отслеживайте SBIRS GEO 2 в реальном времени с AllMySat

Download on the App Store